CW2014 Weather Reports


Display with metric or nautical units.
time (UTC)temp
F
wind
direction
speed
MPH
gust
MPH
rain 1hr
in
rain 24hr
in
rain mn
in
humidity
%
barometer
mb
20260510173525 95 304 1.0 7.0 0.00 0.00 0.00 12 1010.2
20260510173045 95 211 0.0 7.0 0.00 0.00 0.00 10 1010.1
20260510172525 95 277 1.0 5.0 0.00 0.00 0.00 11 1010.1
20260510172023 95 260 0.0 6.0 0.00 0.00 0.00 12 1010.0
20260510171540 95 0 0.0 6.0 0.00 0.00 0.00 12 1010.0
20260510171024 94 146 2.0 6.0 0.00 0.00 0.00 12 1010.1
20260510170522 94 178 0.0 4.0 0.00 0.00 0.00 12 1010.0
20260510170044 93 0 0.0 4.0 0.00 0.00 0.00 13 1010.0
20260510165523 92 302 0.0 4.0 0.00 0.00 0.00 13 1009.9
20260510165023 92 351 1.0 4.0 0.00 0.00 0.00 13 1009.9
20260510164540 93 0 1.0 3.0 0.00 0.00 0.00 13 1009.9
20260510164024 92 63 1.0 5.0 0.00 0.00 0.00 14 1009.9
20260510163529 92 337 1.0 5.0 0.00 0.00 0.00 13 1009.7
20260510163047 92 0 0.0 2.0 0.00 0.00 0.00 14 1009.8
20260510162526 92 0 0.0 3.0 0.00 0.00 0.00 14 1009.8
20260510162022 91 83 1.0 3.0 0.00 0.00 0.00 14 1009.8
20260510161536 91 111 0.0 5.0 0.00 0.00 0.00 14 1009.8
20260510161025 91 154 0.0 5.0 0.00 0.00 0.00 14 1009.7
20260510160525 90 153 0.0 4.0 0.00 0.00 0.00 15 1009.7
20260510160044 90 0 0.0 2.0 0.00 0.00 0.00 15 1009.7
20260510155528 89 0 0.0 3.0 0.00 0.00 0.00 15 1009.7
20260510155025 88 120 0.0 4.0 0.00 0.00 0.00 16 1009.7
20260510154540 87 0 1.0 4.0 0.00 0.00 0.00 17 1009.6
20260510154025 87 167 1.0 3.0 0.00 0.00 0.00 18 1009.6
20260510153526 86 152 0.0 3.0 0.00 0.00 0.00 18 1009.6
20260510153038 85 152 0.0 3.0 0.00 0.00 0.00 18 1009.5
20260510152525 85 152 1.0 4.0 0.00 0.00 0.00 19 1009.5
20260510152023 84 173 1.0 5.0 0.00 0.00 0.00 19 1009.6
20260510151541 83 200 1.0 5.0 0.00 0.00 0.00 19 1009.6
20260510151023 82 149 1.0 7.0 0.00 0.00 0.00 20 1009.6
20260510150525 82 154 1.0 7.0 0.00 0.00 0.00 20 1009.5
20260510150042 81 144 2.0 7.0 0.00 0.00 0.00 20 1009.6
20260510145525 81 165 3.0 7.0 0.00 0.00 0.00 20 1009.5
20260510145027 80 128 2.0 6.0 0.00 0.00 0.00 21 1009.5
20260510144558 80 163 2.0 7.0 0.00 0.00 0.00 21 1009.6
20260510144025 79 162 1.0 7.0 0.00 0.00 0.00 21 1009.5
20260510143524 79 0 0.0 4.0 0.00 0.00 0.00 22 1009.6
20260510143039 79 88 1.0 6.0 0.00 0.00 0.00 22 1009.4
20260510142522 78 85 1.0 6.0 0.00 0.00 0.00 23 1009.5
20260510142023 78 115 1.0 6.0 0.00 0.00 0.00 22 1009.6
20260510141539 77 72 2.0 5.0 0.00 0.00 0.00 22 1009.4
20260510141023 77 88 0.0 3.0 0.00 0.00 0.00 23 1009.5
20260510140523 76 109 1.0 3.0 0.00 0.00 0.00 23 1009.4
20260510140038 75 96 1.0 4.0 0.00 0.00 0.00 24 1009.4
20260510135525 74 96 1.0 4.0 0.00 0.00 0.00 25 1009.2
20260510135025 74 94 1.0 6.0 0.00 0.00 0.00 25 1009.2
20260510134558 73 0 1.0 6.0 0.00 0.00 0.00 25 1009.1
20260510134025 72 128 1.0 6.0 0.00 0.00 0.00 25 1009.0
20260510133526 72 67 2.0 6.0 0.00 0.00 0.00 26 1009.2
20260510133040 71 76 2.0 6.0 0.00 0.00 0.00 25 1009.0
20260510132524 71 123 2.0 6.0 0.00 0.00 0.00 26 1008.9
20260510132025 70 158 2.0 6.0 0.00 0.00 0.00 26 1008.8
20260510131540 70 114 2.0 6.0 0.00 0.00 0.00 27 1008.7
20260510131025 69 109 1.0 6.0 0.00 0.00 0.00 28 1008.6
20260510130524 69 93 2.0 6.0 0.00 0.00 0.00 27 1008.6
20260510130040 68 77 2.0 4.0 0.00 0.00 0.00 29 1008.5
20260510125524 68 0 1.0 3.0 0.00 0.00 0.00 30 1008.3
20260510125028 68 111 0.0 3.0 0.00 0.00 0.00 30 1008.3
20260510124544 68 111 0.0 3.0 0.00 0.00 0.00 30 1008.3
20260510124025 68 111 1.0 3.0 0.00 0.00 0.00 30 1008.2
20260510123524 68 116 1.0 3.0 0.00 0.00 0.00 30 1008.2
20260510123045 68 142 0.0 3.0 0.00 0.00 0.00 29 1008.2
20260510122525 68 142 1.0 3.0 0.00 0.00 0.00 29 1008.2
20260510122024 69 152 0.0 3.0 0.00 0.00 0.00 29 1008.1
20260510121540 69 0 1.0 3.0 0.00 0.00 0.00 28 1008.1
20260510121024 69 0 1.0 3.0 0.00 0.00 0.00 28 1008.0
20260510120527 69 108 2.0 3.0 0.00 0.00 0.00 28 1008.0
20260510120041 69 139 0.0 3.0 0.00 0.00 0.00 28 1008.0
20260510115523 69 139 1.0 3.0 0.00 0.00 0.00 28 1008.1
20260510115027 70 139 0.0 3.0 0.00 0.00 0.00 28 1008.1
20260510114540 70 139 1.0 3.0 0.00 0.00 0.00 28 1008.0
20260510114025 70 114 1.0 3.0 0.00 0.00 0.00 28 1007.9
20260510113524 70 109 1.0 3.0 0.00 0.00 0.00 28 1008.0
20260510113038 70 122 1.0 3.0 0.00 0.00 0.00 28 1008.0
20260510112524 71 122 1.0 2.0 0.00 0.00 0.00 28 1008.1
20260510112023 71 122 1.0 2.0 0.00 0.00 0.00 28 1008.1
20260510111553 71 122 0.0 2.0 0.00 0.00 0.00 27 1008.1
20260510111024 72 0 0.0 2.0 0.00 0.00 0.00 26 1008.0
20260510110524 72 0 0.0 2.0 0.00 0.00 0.00 26 1007.9
20260510110041 73 0 1.0 5.0 0.00 0.00 0.00 25 1007.8
20260510105524 73 122 1.0 5.0 0.00 0.00 0.00 25 1007.7
20260510105024 73 155 2.0 5.0 0.00 0.00 0.00 24 1007.6
20260510104549 74 168 2.0 5.0 0.00 0.00 0.00 24 1007.6
20260510104024 74 157 3.0 5.0 0.00 0.00 0.00 24 1007.7
20260510103524 75 148 2.0 4.0 0.00 0.00 0.00 23 1007.6
20260510103043 75 147 1.0 5.0 0.00 0.00 0.00 23 1007.6
20260510102524 75 148 2.0 5.0 0.00 0.00 0.00 22 1007.5
20260510102026 76 158 1.0 5.0 0.00 0.00 0.00 22 1007.4
20260510101539 76 150 2.0 5.0 0.00 0.00 0.00 22 1007.4
20260510101024 76 178 1.0 5.0 0.00 0.00 0.00 21 1007.4
20260510100524 76 232 1.0 7.0 0.00 0.00 0.00 21 1007.4
20260510100035 76 143 2.0 7.0 0.00 0.00 0.00 21 1007.3
20260510095524 76 155 2.0 7.0 0.00 0.00 0.00 21 1007.3
20260510095024 77 153 3.0 8.0 0.00 0.00 0.00 21 1007.3
20260510094542 77 148 2.0 9.0 0.00 0.00 0.00 21 1007.3
20260510094024 77 154 5.0 9.0 0.00 0.00 0.00 21 1007.3
20260510093524 76 143 4.0 8.0 0.00 0.00 0.00 21 1007.2
20260510093040 75 142 3.0 6.0 0.00 0.00 0.00 22 1007.3
20260510092524 75 157 2.0 7.0 0.00 0.00 0.00 23 1007.2
20260510092024 75 148 3.0 9.0 0.00 0.00 0.00 23 1007.2
20260510091539 75 147 3.0 9.0 0.00 0.00 0.00 23 1007.2
20260510091024 75 163 5.0 9.0 0.00 0.00 0.00 24 1007.2
20260510090523 75 140 2.0 5.0 0.00 0.00 0.00 24 1007.2
20260510090039 75 149 1.0 4.0 0.00 0.00 0.00 24 1007.1
20260510085523 75 98 1.0 4.0 0.00 0.00 0.00 24 1007.0
20260510085024 75 126 1.0 4.0 0.00 0.00 0.00 24 1007.0
20260510084539 75 161 2.0 5.0 0.00 0.00 0.00 24 1007.0
20260510084100 75 159 2.0 6.0 0.00 0.00 0.00 25 1007.0
20260510083529 75 127 2.0 6.0 0.00 0.00 0.00 26 1007.0
20260510083041 75 142 1.0 4.0 0.00 0.00 0.00 26 1007.0
20260510082525 75 117 0.0 0.0 0.00 0.00 0.00 26 1007.0
20260510082024 75 0 0.0 0.0 0.00 0.00 0.00 26 1007.1
20260510081543 75 0 0.0 0.0 0.00 0.00 0.00 27 1007.1
20260510081024 75 0 0.0 0.0 0.00 0.00 0.00 27 1007.1
20260510080523 75 0 0.0 1.0 0.00 0.00 0.00 28 1007.0
20260510080039 75 0 0.0 2.0 0.00 0.00 0.00 28 1007.0
20260510075525 75 0 0.0 2.0 0.00 0.00 0.00 29 1007.1
20260510075023 76 123 0.0 3.0 0.00 0.00 0.00 28 1007.1
20260510074541 76 123 1.0 3.0 0.00 0.00 0.00 28 1007.0
20260510074023 76 205 0.0 2.0 0.00 0.00 0.00 28 1007.0
20260510073525 76 205 0.0 3.0 0.00 0.00 0.00 27 1007.0
20260510073038 76 205 1.0 3.0 0.00 0.00 0.00 28 1006.9
20260510072524 76 0 0.0 0.0 0.00 0.00 0.00 27 1006.9
20260510072024 76 0 0.0 0.0 0.00 0.00 0.00 28 1006.8
20260510071543 77 0 0.0 1.0 0.00 0.00 0.00 28 1006.9
20260510071024 77 0 0.0 1.0 0.00 0.00 0.00 27 1006.9
20260510070527 77 0 0.0 1.0 0.00 0.00 0.00 27 1006.9
20260510070042 77 205 0.0 2.0 0.00 0.00 0.00 27 1006.9
20260510065524 78 205 0.0 2.0 0.00 0.00 0.00 27 1006.9
20260510065023 78 0 0.0 2.0 0.00 0.00 0.00 26 1006.8
20260510064538 78 205 0.0 1.0 0.00 0.00 0.00 26 1006.8
20260510064025 78 0 0.0 3.0 0.00 0.00 0.00 26 1006.8
20260510063525 79 0 0.0 3.0 0.00 0.00 0.00 24 1006.8
20260510063040 79 0 0.0 2.0 0.00 0.00 0.00 25 1006.8
20260510062522 79 0 0.0 2.0 0.00 0.00 0.00 24 1006.6
20260510062025 80 0 0.0 4.0 0.00 0.00 0.00 24 1006.6
20260510061540 80 0 0.0 4.0 0.00 0.00 0.00 23 1006.6
20260510061025 80 201 0.0 3.0 0.00 0.00 0.00 24 1006.8
20260510060526 80 187 0.0 3.0 0.00 0.00 0.00 23 1006.8
20260510060050 81 0 0.0 0.0 0.00 0.00 0.00 23 1006.6
20260510055522 81 0 0.0 0.0 0.00 0.00 0.00 23 1006.6
20260510055024 82 0 0.0 0.0 0.00 0.00 0.00 22 1006.5
20260510054539 82 0 0.0 0.0 0.00 0.00 0.00 21 1006.5
20260510054023 83 0 0.0 1.0 0.00 0.00 0.00 22 1006.5
20260510053522 84 0 0.0 2.0 0.00 0.00 0.00 20 1006.4
20260510053038 84 0 0.0 2.0 0.00 0.00 0.00 19 1006.2
20260510052522 84 251 0.0 2.0 0.00 0.00 0.00 19 1006.2
20260510052025 84 251 1.0 2.0 0.00 0.00 0.00 19 1006.3
20260510051557 84 242 1.0 2.0 0.00 0.00 0.00 19 1006.6
20260510051025 85 240 0.0 2.0 0.00 0.00 0.00 19 1006.5
20260510050525 85 240 1.0 2.0 0.00 0.00 0.00 18 1006.4
20260510050043 85 254 1.0 3.0 0.00 0.00 0.00 19 1006.4
20260510045529 85 242 1.0 3.0 0.00 0.00 0.00 18 1006.3
20260510045025 85 254 0.0 2.0 0.00 0.00 0.00 19 1006.2
20260510044542 86 0 0.0 2.0 0.00 0.00 0.00 18 1006.2
20260510044027 86 254 0.0 2.0 0.00 0.00 0.00 18 1006.2
20260510043523 86 254 0.0 2.0 0.00 0.00 0.00 19 1006.2
20260510043057 87 0 0.0 2.0 0.00 0.00 0.00 17 1006.0
20260510042523 87 254 0.0 2.0 0.00 0.00 0.00 17 1006.2
20260510042025 87 254 0.0 2.0 0.00 0.00 0.00 17 1006.1
20260510041539 88 254 0.0 2.0 0.00 0.00 0.00 16 1006.0
20260510041022 88 256 0.0 2.0 0.00 0.00 0.00 16 1006.0
20260510040525 88 256 0.0 2.0 0.00 0.00 0.00 16 1006.0
20260510040039 89 256 1.0 2.0 0.00 0.00 0.00 15 1005.9
20260510035524 89 257 0.0 2.0 0.00 0.00 0.00 15 1005.9
20260510035027 90 0 0.0 2.0 0.00 0.00 0.00 15 1005.9
20260510034545 90 0 0.0 2.0 0.00 0.00 0.00 14 1005.7
20260510034024 91 258 1.0 2.0 0.00 0.00 0.00 14 1005.8
20260510033523 91 266 0.0 4.0 0.00 0.00 0.00 13 1005.6
20260510033041 92 0 0.0 4.0 0.00 0.00 0.00 13 1005.6
20260510032527 92 262 1.0 4.0 0.00 0.00 0.00 13 1005.6
20260510032024 92 302 2.0 4.0 0.00 0.00 0.00 13 1005.5
20260510031607 92 294 1.0 3.0 0.00 0.00 0.00 13 1005.4
20260510031023 93 300 1.0 3.0 0.00 0.00 0.00 13 1005.3
20260510030524 93 296 1.0 3.0 0.00 0.00 0.00 12 1005.2
20260510030040 93 288 1.0 3.0 0.00 0.00 0.00 12 1005.3
20260510025524 94 266 1.0 4.0 0.00 0.00 0.00 12 1005.2
20260510025027 94 281 1.0 4.0 0.00 0.00 0.00 12 1005.2
20260510024537 94 273 1.0 4.0 0.00 0.00 0.00 12 1005.1
20260510024024 95 284 1.0 8.0 0.00 0.00 0.00 12 1005.1
20260510023524 95 298 2.0 8.0 0.00 0.00 0.00 12 1005.0
20260510023047 95 0 2.0 6.0 0.00 0.00 0.00 11 1005.0
20260510022524 96 307 2.0 6.0 0.00 0.00 0.00 11 1004.9
20260510022024 96 309 2.0 9.0 0.00 0.00 0.00 11 1004.9
20260510021543 96 306 2.0 9.0 0.00 0.00 0.00 11 1004.9
20260510021023 97 284 3.0 9.0 0.00 0.00 0.00 11 1004.8
20260510020523 97 275 2.0 9.0 0.00 0.00 0.00 11 1004.7
20260510020039 98 296 3.0 9.0 0.00 0.00 0.00 11 1004.6
20260510015524 98 292 3.0 9.0 0.00 0.00 0.00 11 1004.6
20260510015024 98 281 3.0 9.0 0.00 0.00 0.00 10 1004.6
20260510014535 98 235 3.0 9.0 0.00 0.00 0.00 10 1004.6
20260510014023 99 238 3.0 10.0 0.00 0.00 0.00 10 1004.6
20260510013525 99 209 4.0 10.0 0.00 0.00 0.00 10 1004.5
20260510013042 99 261 3.0 10.0 0.00 0.00 0.00 10 1004.6
20260510012527 99 296 3.0 12.0 0.00 0.00 0.00 10 1004.6
20260510012024 99 307 3.0 12.0 0.00 0.00 0.00 10 1004.7
20260510011553 99 288 5.0 12.0 0.00 0.00 0.00 10 1004.7
20260510011027 100 300 3.0 11.0 0.00 0.00 0.00 10 1004.6
20260510010523 100 313 4.0 11.0 0.00 0.00 0.00 10 1004.6
20260510010049 100 272 5.0 11.0 0.00 0.00 0.00 10 1004.6
20260510005524 100 275 3.0 10.0 0.00 0.00 0.00 10 1004.6
20260510005025 100 0 5.0 11.0 0.00 0.00 0.00 10 1004.7
20260510004539 100 309 4.0 11.0 0.00 0.00 0.00 10 1004.7
20260510004027 100 324 3.0 11.0 0.00 0.00 0.00 9 1004.7
20260510003524 100 273 2.0 11.0 0.00 0.00 0.00 9 1004.6
20260510003041 100 297 4.0 13.0 0.00 0.00 0.00 9 1004.7
20260510002523 101 295 3.0 13.0 0.00 0.00 0.00 9 1004.7
20260510002027 100 283 5.0 11.0 0.00 0.00 0.00 9 1004.8
20260510001540 100 258 1.0 12.0 0.00 0.00 0.00 9 1004.8
20260510001024 101 304 4.0 12.0 0.00 0.00 0.00 8 1004.7
20260510000524 101 269 4.0 11.0 0.00 0.00 0.00 9 1004.8
20260510000042 101 275 4.0 13.0 0.00 0.00 0.00 9 1004.7
20260509235522 101 238 3.0 13.0 0.00 0.00 0.00 9 1004.8
20260509235022 101 207 4.0 10.0 0.00 0.00 0.00 9 1004.8
20260509234538 101 252 3.0 16.0 0.00 0.00 0.00 9 1004.8
20260509234029 101 304 5.0 16.0 0.00 0.00 0.00 9 1004.9
20260509233525 102 298 3.0 10.0 0.00 0.00 0.00 10 1005.0
20260509233043 101 336 2.0 10.0 0.00 0.00 0.00 9 1005.0
20260509232524 102 283 2.0 8.0 0.00 0.00 0.00 10 1005.1
20260509232024 102 337 2.0 11.0 0.00 0.00 0.00 9 1005.1
20260509231544 102 209 4.0 11.0 0.00 0.00 0.00 9 1005.1
20260509231024 102 273 4.0 11.0 0.00 0.00 0.00 9 1005.1
20260509230522 102 244 3.0 10.0 0.00 0.00 0.00 9 1005.1
20260509230050 101 298 4.0 10.0 0.00 0.00 0.00 10 1005.2
20260509225526 102 319 3.0 9.0 0.00 0.00 0.00 11 1005.3
20260509225025 101 327 3.0 9.0 0.00 0.00 0.00 11 1005.2
20260509224535 101 340 3.0 9.0 0.00 0.00 0.00 11 1005.3
20260509224025 101 299 3.0 13.0 0.00 0.00 0.00 10 1005.4
20260509223524 101 352 6.0 13.0 0.00 0.00 0.00 10 1005.5
20260509223039 102 309 4.0 10.0 0.00 0.00 0.00 10 1005.5
20260509222523 102 338 2.0 9.0 0.00 0.00 0.00 10 1005.6
20260509222023 102 0 3.0 9.0 0.00 0.00 0.00 10 1005.7
20260509221540 101 324 4.0 9.0 0.00 0.00 0.00 10 1005.9
20260509221024 101 317 2.0 10.0 0.00 0.00 0.00 10 1005.9
20260509220525 101 325 4.0 10.0 0.00 0.00 0.00 10 1006.1
20260509220039 101 278 2.0 10.0 0.00 0.00 0.00 10 1006.0
20260509215526 101 333 3.0 10.0 0.00 0.00 0.00 10 1006.1
20260509215025 101 288 3.0 11.0 0.00 0.00 0.00 10 1006.2
20260509214537 101 316 4.0 11.0 0.00 0.00 0.00 10 1006.2
20260509214024 101 322 3.0 11.0 0.00 0.00 0.00 10 1006.2
20260509213524 101 0 1.0 11.0 0.00 0.00 0.00 10 1006.3
20260509213058 101 334 4.0 14.0 0.00 0.00 0.00 10 1006.4
20260509212524 102 331 3.0 14.0 0.00 0.00 0.00 11 1006.4
20260509212024 101 264 4.0 11.0 0.00 0.00 0.00 10 1006.4
20260509211606 101 311 3.0 9.0 0.00 0.00 0.00 10 1006.5
20260509211024 101 277 3.0 13.0 0.00 0.00 0.00 11 1006.5
20260509210524 101 348 4.0 13.0 0.00 0.00 0.00 11 1006.5
20260509210040 101 297 2.0 9.0 0.00 0.00 0.00 10 1006.6
20260509205525 100 247 2.0 9.0 0.00 0.00 0.00 10 1006.8
20260509205023 100 304 4.0 11.0 0.00 0.00 0.00 11 1007.0
20260509204551 100 250 4.0 11.0 0.00 0.00 0.00 11 1007.1
20260509204028 100 316 4.0 11.0 0.00 0.00 0.00 11 1007.2
20260509203524 100 242 2.0 10.0 0.00 0.00 0.00 11 1007.1
20260509203052 99 0 4.0 11.0 0.00 0.00 0.00 12 1007.3
20260509202524 99 350 1.0 11.0 0.00 0.00 0.00 12 1007.4
20260509202025 99 287 4.0 11.0 0.00 0.00 0.00 11 1007.5
20260509201544 99 318 4.0 10.0 0.00 0.00 0.00 11 1007.5
20260509201024 99 298 3.0 9.0 0.00 0.00 0.00 12 1007.6
20260509200526 98 299 2.0 9.0 0.00 0.00 0.00 12 1007.7
20260509200040 98 327 3.0 9.0 0.00 0.00 0.00 12 1007.8
20260509195523 98 271 3.0 9.0 0.00 0.00 0.00 12 1007.8
20260509195024 97 298 1.0 9.0 0.00 0.00 0.00 13 1007.8
20260509194542 97 302 3.0 10.0 0.00 0.00 0.00 12 1008.0
20260509194026 97 309 4.0 10.0 0.00 0.00 0.00 13 1008.0
20260509193525 97 286 3.0 10.0 0.00 0.00 0.00 13 1008.0
20260509193039 97 316 3.0 10.0 0.00 0.00 0.00 13 1008.1
20260509192523 97 277 0.0 9.0 0.00 0.00 0.00 13 1008.2
20260509192025 98 331 3.0 9.0 0.00 0.00 0.00 13 1008.2
20260509191539 97 204 1.0 8.0 0.00 0.00 0.00 13 1008.2
20260509191030 97 255 2.0 8.0 0.00 0.00 0.00 13 1008.3
20260509190524 96 14 2.0 10.0 0.00 0.00 0.00 13 1008.5
20260509190048 96 327 3.0 10.0 0.00 0.00 0.00 13 1008.4
20260509185524 96 342 2.0 10.0 0.00 0.00 0.00 13 1008.5
20260509185025 96 9 3.0 8.0 0.00 0.00 0.00 14 1008.6
20260509184540 96 259 1.0 6.0 0.00 0.00 0.00 14 1008.7
20260509184024 95 348 1.0 7.0 0.00 0.00 0.00 13 1008.7
20260509183526 95 303 2.0 7.0 0.00 0.00 0.00 13 1008.8
20260509183041 95 333 1.0 8.0 0.00 0.00 0.00 13 1008.8
20260509182524 95 254 2.0 9.0 0.00 0.00 0.00 13 1008.9
20260509182026 95 292 3.0 9.0 0.00 0.00 0.00 13 1008.9
20260509181539 96 325 2.0 5.0 0.00 0.00 0.00 14 1009.0
20260509181024 95 42 1.0 7.0 0.00 0.00 0.00 14 1009.2
20260509180524 94 252 1.0 7.0 0.00 0.00 0.00 15 1009.2
20260509180039 93 340 2.0 6.0 0.00 0.00 0.00 14 1009.2
20260509175524 94 0 2.0 8.0 0.00 0.00 0.00 15 1009.2
20260509175024 95 257 1.0 9.0 0.00 0.00 0.00 14 1009.3
20260509174550 95 256 2.0 9.0 0.00 0.00 0.00 14 1009.4
20260509174028 95 213 1.0 4.0 0.00 0.00 0.00 15 1009.4